{"data":{"norad_id":50843,"epoch":"2026-05-22T13:08:22.178688Z","epoch_age_seconds":283352,"freshness":"STALE","line1":"1 50843U 22001AS  26142.54747892  .02247048  12020-4  61579-3 0  9993","line2":"2 50843  53.2069 162.4605 0008262  10.0713 350.0495 16.27218699242040","mean_motion":16.27218699,"eccentricity":0.0008262,"inclination_deg":53.2069,"raan_deg":162.4605,"arg_perigee_deg":10.0713,"mean_anomaly_deg":350.0495,"bstar":0.00061579,"rev_number":24204,"period_min":88.494558284326,"perigee_km":194.59000952681,"apogee_km":205.45976422869,"semimajor_km":6578.1618868778,"source":"CELESTRAK","updated_at":"2026-05-25T13:38:16.882171Z"}}